Location: Newark
(53.2000°N, 6.1000°W)
Time: 22:38:37
(UTC+00:00)

ISS - Pass Details

Date: 02 October 2020
Orbit: 417 x 420 km, 51.6° (Epoch: 29 October)

Event Time Altitude Azimuth Distance (km) Brightness Sun altitude
Rises 19:51:41 0° 279° (W) 2,371 1.7 -17.7°
Reaches altitude 10° 19:54:04 10° 265° (W) 1,505 0.1 -18.0°
Maximum altitude 19:56:46 22° 211° (SSW) 959 -1.8 -18.4°
Enters shadow 19:57:40 20° 187° (S) 1,034 -1.9 -18.6°
